Storm Events Database

Event Details

Event Tornado
-- Scale EF1
-- Length 2.9 Miles
-- Width 75 Yards
State TENNESSEE
County/Area HUMPHREYS
WFO OHX
Report Source NWS Storm Survey
NCDC Data Source CSV
Begin Date 2011-04-04 12:19:00.0 CST-6
Begin Location 0NW WAVERLY
Begin Lat/Lon 36.08/-87.81
End Date 2011-04-04 12:22:00.0 CST-6
End Location 3E WAVERLY
End Lat/Lon 36.09/-87.75
Deaths Direct/Indirect 0/0 (fatality details below, when available...)
Injuries Direct/Indirect 0/0
Property Damage 150.00K
Crop Damage 5.00K
Episode Narrative From the morning through mid afternoon hours on Monday, April 4th, a line of showers and thunderstorms moved across Middle Tennessee ahead of the passage of a strong surface and upper level frontal system. As a result, a widespread convective wind event occurred across the area, resulting in numerous reports of thunderstorm wind damage. Also, severe thunderstorms produced several funnel clouds and a few tornadoes.
Event Narrative Initial damage was noted just west of Waverly near the intersection of Bowen Hills Drive and U.S. Highway 70. The damage continued directly through downtown Waverly for approximately 2.9 miles. The last evidence of damage was near the intersection of Fairfield Drive and U.S. Highway 70. The damage path was very narrow, with a maximum width of only 75 yards.
In addition to dozens of snapped and uprooted trees, several businesses in Waverly suffered significant roof damage. Signs and overhangs were also torn off by the winds, and there were several homes and vehicles crushed by falling trees.


     ‚Äč



All events for this episode:

Location County/Zone St. Date Time T.Z. Type Mag Dth Inj PrD CrD
Totals: 0 2 1.959M 50.00K
DONELSON DAVIDSON CO. TN 04/04/2011 01:15 CST-6 Thunderstorm Wind 35 kts. EG 0 0 10.00K 0.00K
WAVERLY HUMPHREYS CO. TN 04/04/2011 12:19 CST-6 Tornado EF1 0 0 150.00K 5.00K
LINDEN PERRY CO. TN 04/04/2011 12:20 CST-6 Thunderstorm Wind 55 kts. EG 0 0 5.00K 0.00K
CAMDEN BENTON CO ARP BENTON CO. TN 04/04/2011 12:25 CST-6 Thunderstorm Wind 55 kts. EG 0 0 5.00K 5.00K
FOREST HILL HUMPHREYS CO. TN 04/04/2011 12:25 CST-6 Thunderstorm Wind 72 kts. EG 0 0 25.00K 0.00K
MC EWEN HUMPHREYS CO. TN 04/04/2011 12:27 CST-6 Thunderstorm Wind 78 kts. EG 0 0 50.00K 0.00K
TENNESSEE CITY DICKSON CO. TN 04/04/2011 12:33 CST-6 Tornado EF1 0 0 110.00K 12.00K
PINEWOOD HICKMAN CO. TN 04/04/2011 12:35 CST-6 Thunderstorm Wind 55 kts. EG 0 0 8.00K 5.00K
OAK GROVE DICKSON CO. TN 04/04/2011 12:40 CST-6 Thunderstorm Wind 55 kts. EG 0 0 10.00K 0.00K
SPRING HILL MAURY CO. TN 04/04/2011 12:40 CST-6 Thunderstorm Wind 60 kts. EG 0 0 15.00K 0.00K
BAGGETTSVILLE ROBERTSON CO. TN 04/04/2011 12:45 CST-6 Thunderstorm Wind 55 kts. EG 0 0 10.00K 0.00K
BAKERSWORKS DICKSON CO. TN 04/04/2011 12:45 CST-6 Thunderstorm Wind 55 kts. EG 0 0 25.00K 0.00K
CHARLOTTE DICKSON CO. TN 04/04/2011 12:45 CST-6 Thunderstorm Wind 52 kts. EG 0 0 7.00K 0.00K
BAKERSWORKS DICKSON CO. TN 04/04/2011 12:47 CST-6 Thunderstorm Wind 78 kts. EG 0 0 125.00K 0.00K
ASHLAND CITY CHEATHAM CO. TN 04/04/2011 12:50 CST-6 Thunderstorm Wind 55 kts. EG 0 0 10.00K 0.00K
NUNNELLY HICKMAN CO. TN 04/04/2011 12:50 CST-6 Thunderstorm Wind 55 kts. EG 0 0 25.00K 0.00K
PRIMM SPGS HICKMAN CO. TN 04/04/2011 12:50 CST-6 Hail 1.00 in. 0 0 0.00K 0.00K
ASHLAND CITY CHEATHAM CO. TN 04/04/2011 12:52 CST-6 Thunderstorm Wind 78 kts. EG 0 0 125.00K 0.00K
SULPHUR SPGS CHEATHAM CO. TN 04/04/2011 12:52 CST-6 Tornado EF0 0 0 2.00K 5.00K
BELLEVUE DAVIDSON CO. TN 04/04/2011 13:05 CST-6 Thunderstorm Wind 55 kts. EG 0 0 5.00K 0.00K
WESTWOOD MAURY CO. TN 04/04/2011 13:05 CST-6 Thunderstorm Wind 69 kts. EG 0 0 10.00K 0.00K
BELLE MEADE DAVIDSON CO. TN 04/04/2011 13:10 CST-6 Thunderstorm Wind 55 kts. EG 0 0 25.00K 0.00K
BERRYS CHAPEL WILLIAMSON CO. TN 04/04/2011 13:10 CST-6 Funnel Cloud 0 0 0.00K 0.00K
BERRYS CHAPEL WILLIAMSON CO. TN 04/04/2011 13:10 CST-6 Thunderstorm Wind 55 kts. EG 0 0 5.00K 0.00K
MUDSINK WILLIAMSON CO. TN 04/04/2011 13:10 CST-6 Thunderstorm Wind 55 kts. EG 0 0 1.00K 0.00K
NASHVILLE DAVIDSON CO. TN 04/04/2011 13:10 CST-6 Thunderstorm Wind 55 kts. EG 0 0 25.00K 0.00K
BERRY HILL DAVIDSON CO. TN 04/04/2011 13:15 CST-6 Thunderstorm Wind 55 kts. EG 0 0 10.00K 0.00K
DONELSON DAVIDSON CO. TN 04/04/2011 13:15 CST-6 Thunderstorm Wind 55 kts. EG 0 0 5.00K 0.00K
NASHVILLE DAVIDSON CO. TN 04/04/2011 13:15 CST-6 Thunderstorm Wind 55 kts. EG 0 0 5.00K 0.00K
ROCKLAND SUMNER CO. TN 04/04/2011 13:15 CST-6 Thunderstorm Wind 55 kts. EG 0 0 5.00K 0.00K
GALLATIN SUMNER CO. TN 04/04/2011 13:17 CST-6 Thunderstorm Wind 55 kts. EG 0 0 1.00K 0.00K
GALLATIN SUMNER CO. TN 04/04/2011 13:20 CST-6 Thunderstorm Wind 55 kts. EG 0 0 5.00K 0.00K
GALLATIN SUMNER CO. TN 04/04/2011 13:20 CST-6 Thunderstorm Wind 55 kts. EG 0 0 10.00K 0.00K
MT JULIET WILSON CO. TN 04/04/2011 13:20 CST-6 Thunderstorm Wind 55 kts. EG 0 0 35.00K 0.00K
STONE RIVER DAVIDSON CO. TN 04/04/2011 13:20 CST-6 Thunderstorm Wind 60 kts. EG 0 0 80.00K 0.00K
WOODBINE DAVIDSON CO. TN 04/04/2011 13:20 CST-6 Thunderstorm Wind 55 kts. EG 0 0 5.00K 0.00K
WRENCOE DAVIDSON CO. TN 04/04/2011 13:20 CST-6 Tornado EF1 0 0 250.00K 4.00K
LA VERGNE RUTHERFORD CO. TN 04/04/2011 13:22 CST-6 Tornado EF1 0 0 250.00K 4.00K
MT JULIET WILSON CO. TN 04/04/2011 13:22 CST-6 Thunderstorm Wind 55 kts. EG 0 0 15.00K 0.00K
J PERCY PRIEST RES N DAVIDSON CO. TN 04/04/2011 13:25 CST-6 Funnel Cloud 0 0 0.00K 0.00K
LORETTO LAWRENCE CO. TN 04/04/2011 13:25 CST-6 Thunderstorm Wind 55 kts. EG 0 0 5.00K 0.00K
SILVER BOTTOM WILSON CO. TN 04/04/2011 13:25 CST-6 Thunderstorm Wind 55 kts. EG 0 0 25.00K 0.00K
LEEVILLE WILSON CO. TN 04/04/2011 13:30 CST-6 Thunderstorm Wind 55 kts. EG 0 0 5.00K 0.00K
LORETTO LAWRENCE CO. TN 04/04/2011 13:30 CST-6 Thunderstorm Wind 55 kts. EG 0 0 30.00K 0.00K
MT JULIET WILSON CO. TN 04/04/2011 13:30 CST-6 Thunderstorm Wind 55 kts. EG 0 0 40.00K 0.00K
ROCK SPGS RUTHERFORD CO. TN 04/04/2011 13:30 CST-6 Thunderstorm Wind 50 kts. EG 0 0 5.00K 0.00K
SILVER BOTTOM WILSON CO. TN 04/04/2011 13:30 CST-6 Thunderstorm Wind 55 kts. EG 0 0 25.00K 0.00K
LASCASSAS RUTHERFORD CO. TN 04/04/2011 13:39 CST-6 Thunderstorm Wind 55 kts. EG 0 0 12.00K 5.00K
HARTSVILLE TROUSDALE CO. TN 04/04/2011 13:40 CST-6 Thunderstorm Wind 55 kts. EG 0 0 10.00K 0.00K
PULASKI GILES CO. TN 04/04/2011 13:40 CST-6 Thunderstorm Wind 55 kts. EG 0 0 10.00K 0.00K
UNIONVILLE BEDFORD CO. TN 04/04/2011 13:40 CST-6 Thunderstorm Wind 55 kts. EG 0 0 1.00K 0.00K
SOUTH CARTHAGE SMITH CO. TN 04/04/2011 13:50 CST-6 Thunderstorm Wind 55 kts. EG 0 0 10.00K 0.00K
PULASKI GILES CO. TN 04/04/2011 13:55 CST-6 Thunderstorm Wind 55 kts. EG 0 0 30.00K 0.00K
TULLAHOMA COFFEE CO. TN 04/04/2011 13:55 CST-6 Thunderstorm Wind 55 kts. EG 0 0 30.00K 0.00K
GAINESBORO ARPT JACKSON CO. TN 04/04/2011 13:56 CST-6 Thunderstorm Wind 55 kts. EG 0 0 10.00K 0.00K
CELINA CLAY CO. TN 04/04/2011 13:58 CST-6 Thunderstorm Wind 55 kts. EG 0 0 50.00K 0.00K
NEELY XRDS CLAY CO. TN 04/04/2011 14:04 CST-6 Thunderstorm Wind 60 kts. EG 0 2 10.00K 0.00K
CELINA CLAY CO. TN 04/04/2011 14:05 CST-6 Thunderstorm Wind 55 kts. EG 0 0 50.00K 0.00K
SPRING HILL MAURY CO. TN 04/04/2011 14:10 CST-6 Thunderstorm Wind 60 kts. EG 0 0 25.00K 0.00K
TANGLEWOOD SMITH CO. TN 04/04/2011 14:10 CST-6 Thunderstorm Wind 55 kts. EG 0 0 2.00K 0.00K
COOKEVILLE PUTNAM CO. TN 04/04/2011 14:14 CST-6 Thunderstorm Wind 55 kts. EG 0 0 25.00K 0.00K
ALGOOD PUTNAM CO. TN 04/04/2011 14:20 CST-6 Funnel Cloud 0 0 0.00K 0.00K
MC MINNVILLE WARREN CO. TN 04/04/2011 14:25 CST-6 Thunderstorm Wind 50 kts. EG 0 0 0.00K 5.00K
PINE HAVEN FENTRESS CO. TN 04/04/2011 14:30 CST-6 Thunderstorm Wind 55 kts. EG 0 0 30.00K 0.00K
JAMESTOWN FENTRESS CO. TN 04/04/2011 14:35 CST-6 Thunderstorm Wind 55 kts. EG 0 0 25.00K 0.00K
OAK HILL CUMBERLAND CO. TN 04/04/2011 14:45 CST-6 Thunderstorm Wind 55 kts. EG 0 0 25.00K 0.00K
RED HILL COFFEE CO. TN 04/04/2011 14:45 CST-6 Thunderstorm Wind 55 kts. EG 0 0 5.00K 0.00K
WINTON TOWN COFFEE CO. TN 04/04/2011 14:48 CST-6 Hail 1.00 in. 0 0 0.00K 0.00K
JAMESTOWN FENTRESS CO. TN 04/04/2011 15:35 CST-6 Funnel Cloud 0 0 0.00K 0.00K
Totals: 0 2 1.959M 50.00K